Regional Weather Roundup
Issued by NWS Newport/Morehead, NC

Current Version | Previous Version | Graphics & Text | Print | Product List | Glossary On
Versions: 1 2 3 4 5 6 7 8 9 10 11 12 13 14 15 16 17 18 19 20 21 22 23 24 25 26 27 28 29 30 31 32 33 34 35 36 37 38 39 40 41 42 43 44 45 46 47 48 49 50
000 ASUS42 KMHX 050013 RWRMHX WEATHER ROUNDUP FOR EASTERN NORTH CAROLINA NATIONAL WEATHER SERVICE NEWPORT/MOREHEAD CITY NC 800 PM EDT TUE AUG 04 2015 NOTE: "FAIR" INDICATES FEW OR NO CLOUDS BELOW 12,000 FEET WITH NO SIGNIFICANT WEATHER AND/OR OBSTRUCTIONS TO VISIBILITY NCZ015>017-031-032-045>047-102-103-050100- NORTH COAST CITY SKY/WX TMP DP RH WIND PRES REMARKS EDENTON N/A 83 71 66 S10 29.94S ELIZABETH CITY PTCLDY 83 73 72 S7 29.95R KITTY HAWK MOCLDY 81 73 77 S7G18 29.96R MANTEO PTCLDY 80 74 84 S21 29.97S $$ NCZ045>047-081-094-103-104-050100- CENTRAL COAST CITY SKY/WX TMP DP RH WIND PRES REMARKS FRISCO MOCLDY 78 75 90 S12 29.99R SWANQUARTER N/A 81 N/A N/A SE12G17 29.94R $$ NCZ095-097-098-100-101-050100- SOUTHERN COAST CITY SKY/WX TMP DP RH WIND PRES REMARKS BEAUFORT MOCLDY 81 78 91 S17G23 29.94S CEDAR ISLAND N/A 81 N/A N/A SE7G14 30.00S JACKSONVILLE CLOUDY 80 75 84 S6 29.93R PINEY ISLAND LGT RAIN N/A N/A N/A SE10 29.95S WILMINGTON MOCLDY 82 77 84 SW7 29.93R $$ NCZ011>013-027>030-043-044-078>080-089-090>093-098-050100- COASTAL PLAIN CITY SKY/WX TMP DP RH WIND PRES REMARKS AHOSKIE PTCLDY N/A N/A N/A S6 29.93R CLINTON CLEAR 83 75 76 CALM 29.93R ELIZABETHTOWN CLEAR 84 74 71 CALM 29.93R GOLDSBORO CLEAR 84 73 69 SE7 29.92R GREENVILLE PTCLDY 84 73 70 S7 29.96R HAVELOCK CLOUDY 81 76 84 S5 29.95S KENANSVILLE CLEAR 79 73 80 CALM 29.95R KINSTON NOT AVBL NEW BERN MOCLDY 80 74 81 S6 29.95S RICHLANDS CLOUDY 81 72 74 NE5 29.94R ROCKY MOUNT CLEAR 85 72 65 S3 29.93R WASHINGTON MOCLDY 82 72 73 S9G16 29.95R WHITEVILLE CLEAR 80 76 86 CALM 29.93S $$ AMZ130-135-150-152-154-156-158-170-250-252-270-ANZ085-086-088-633-658-670-050100- MARINE OBSERVATIONS STATION/POSITION TIME TEMP WIND PRES WAVE SWELL AIR SEA DIR/SP/G HT/PER HT/PER (UTC) (F) (DEG/KT/KT) (MB) (FT/S) (FT/S) CHESAPEAKE LIGHT 0000 80 190/ 22/ 23 1013.5 64 E VA BEACH 2350 81 81 200/ 19/ 25 1014.1 4/ 5 2/11 DUCK 2300 83 63 200/ 16/ 19 1013.2 2 E DUCK 2311 64 N/A 2/11 OREGON INLET 2300 81 83 180/ 16/ 23 1014.8 13E OREGON INLT 0000 80 N/A 4/ 4 HATTERAS CG 2300 78 79 160/ 11/ 16 1014.8 DIAMOND BUOY 2350 80 83 180/ 19/ 21 1015.2 5/ 6 3/11 CAPE LOOKOUT 0000 80 200/ 10/ 14 1013.8 BEAUFORT LAB 2300 81 80 180/ 16/ 19 1013.1 30 SE NEW RVR IN NOT AVBL 27 SE WRIGHTSVLE 2300 78 82 200/ 17/ 21 N/A 5 SE WRIGHTSVLE 2308 82 82 210/ 17/ 21 1012.6 225 S CAPE HAT 2350 82 81 190/ 16/ 17 1018.0 5/ 8 3/ 8 41 SE CHARLESTON 2350 82 83 210/ 16/ 19 1014.3 5/ 6 2/10 $$

USA.gov is the U.S. government's official web portal to all federal, state and local government web resources and services.